Location: Potomac
(46.8816°N, 113.5795°W)
Time: 09:18:38
(UTC+00:00)

UKube-1 - Pass Details

Date: 04 July 2022
Orbit: 608 x 615 km, 98.4° (Epoch: 14 August)

Event Time Altitude Azimuth Distance (km) Brightness Sun altitude
Rises 05:05:32 0° 21° (NNE) 2,895 ? -12.1°
Reaches altitude 10° 05:07:52 10° 29° (NNE) 1,983 ? -12.4°
Maximum altitude 05:11:53 37° 98° (E) 953 ? -12.8°
Enters shadow 05:14:21 20° 155° (SSE) 1,429 ? -13.0°
